2018-092C (44041 NORAD) Tracking and Keplerian Element Data

This shows tracking and keplerian element data for the satellite.

Feedback or suggestion? Click here.




ElementValue
Catalog44041
Name2018-092C
Epoch Orbit191
Epoch Day51.8437379
Epoch Year2019
RAAN221.2224
Inclination51.6416
Eccentricity0.0003788
Argument of Perigee47.7839
Mean Anonmoly312.3466
Mean Motion15.36470067
Decay Rate1.375E-05
L11 44041U 18092C 19051.84373790 .00001375 00000-0 48782-4 0 9999
L22 44041 51.6416 221.2224 0003788 47.7839 312.3466 15.36470067 1912

Live tracking and technical data element details for 2018-092C (NORAD 44041). 2018-092C can be tracked NOW for your location showing map with azimuth and elevation plus other details from your city location.

Track the satellite on the map from your city or location and see movement details for azimuth, elevation, latitude, longitude, range, height, and movement on the map or in text.







IsCatalogInMostPopularTable: catalog: 44041, numindb: 5
Update: records affected: 1



GetName: 44041 2018-092C

Hit Count: updated at: Thu, 21 Feb 2019 12:28:30 GMT